Erzurum Bolge, Turkey

7:52 PM +03 on January 24, 2017 (GMT +0300)
Erzurum

Weather History for LTCE - June, 2013

Change the Weather History Date:

Thursday, June 20, 2013

  Actual Average Record
Temperature  
Mean Temperature 58 °F -  
Max Temperature 70 °F 76 °F 83 °F (2014)
Min Temperature 47 °F 51 °F 35 °F (2002)
Degree Days  
Heating Degree Days 6    
Growing Degree Days 8 (Base 50)    
Moisture  
Dew Point 45 °F    
Average Humidity 59    
Maximum Humidity 82    
Minimum Humidity 35    
Precipitation  
Precipitation 0.00 in 0.04 in - ()
Sea Level Pressure  
Sea Level Pressure 30.04 in    
Wind  
Wind Speed 5 mph ()    
Max Wind Speed 16 mph    
Max Gust Speed 17 mph    
Visibility 6.8 miles    
Events Rain , Thunderstorm    
Averages and records for this station are not official NWS values.
T = Trace of Precipitation, MM = Missing Value Source: Averaged Metar Reports

Daily Weather History Graph

Daily Weather History Graph

Search for Another Location

Airport or City:

Trip Planner

Search our weather history database for the weather conditions in past years. The results will help you decide how hot, cold, wet, or windy it might be!

Date:

Astronomy

Jun. 20, 2013 Rise Set
Actual Time 4:46 AM EEST 7:47 PM EEST
Civil Twilight 4:13 AM EEST 8:20 PM EEST
Nautical Twilight 3:32 AM EEST 9:01 PM EEST
Astronomical Twilight 2:43 AM EEST 9:50 PM EEST
Moon 4:24 PM EEST (6/20) 1:57 AM EEST (6/20)
Length of Visible Light 16h 06m
Length of Day
15h 00m
Waxing Gibbous, 86% of the Moon is Illuminated
Jun 20
Waxing Gibbous
Jun 23
Full
Jun 30
Last Quarter
Jul 8
New
Jul 16
First Quarter

Hourly Weather History & Observations

Time (EEST) Temp. Dew Point Humidity Pressure Visibility Wind Dir Wind Speed Gust Speed Precip Events Conditions
12:20 AM 53.6 °F 44.6 °F 72% 30.04 in - NW 5.8 mph - N/A   Clear
12:50 AM 51.8 °F 44.6 °F 76% 30.04 in - North 5.8 mph - N/A   Clear
1:20 AM 55.4 °F 42.8 °F 63% 30.04 in - WNW 8.1 mph - N/A   Clear
1:50 AM 53.6 °F 42.8 °F 67% 30.04 in - West 5.8 mph - N/A   Clear
2:20 AM 53.6 °F 44.6 °F 72% 30.04 in - West 8.1 mph - N/A   Clear
2:50 AM 53.6 °F 42.8 °F 67% 30.04 in - WNW 6.9 mph - N/A   Clear
3:00 AM 54 °F 43 °F 55%  in 12 mi WNW 6.9 mph - -  
3:20 AM 51.8 °F 42.8 °F 71% 30.04 in - WNW 8.1 mph - N/A   Clear
3:50 AM 48.2 °F 42.8 °F 82% 30.04 in - WSW 5.8 mph - N/A   Clear
4:20 AM 50.0 °F 42.8 °F 76% 30.04 in - Variable 2.3 mph - N/A   Clear
4:50 AM 48.2 °F 42.8 °F 82% 30.04 in - Variable 2.3 mph - N/A   Clear
5:20 AM 48.2 °F 42.8 °F 82% 30.04 in - Calm Calm - N/A   Clear
5:50 AM 50.0 °F 42.8 °F 76% 30.04 in 6.2 mi WSW 4.6 mph - N/A   Partly Cloudy
6:20 AM 51.8 °F 44.6 °F 76% 30.04 in 6.2 mi WNW 5.8 mph - N/A   Partly Cloudy
6:50 AM 51.8 °F 46.4 °F 82% 30.06 in 6.2 mi North 4.6 mph - N/A   Partly Cloudy
7:20 AM 55.4 °F 44.6 °F 67% 30.04 in 6.2 mi Variable 1.2 mph - N/A   Partly Cloudy
7:50 AM 57.2 °F 46.4 °F 67% 30.04 in 6.2 mi Variable 2.3 mph - N/A   Partly Cloudy
8:20 AM 59.0 °F 44.6 °F 59% 30.06 in 6.2 mi Variable 2.3 mph - N/A   Partly Cloudy
8:50 AM 62.6 °F 44.6 °F 52% 30.06 in 6.2 mi NNE 2.3 mph - N/A   Partly Cloudy
9:00 AM 62 °F 47 °F 47%  in 12 mi NE 2.3 mph - -   Scattered Clouds
9:20 AM 60.8 °F 44.6 °F 55% 30.06 in 6.2 mi West 5.8 mph - N/A   Partly Cloudy
9:50 AM 62.6 °F 46.4 °F 55% 30.06 in 6.2 mi North 5.8 mph - N/A   Scattered Clouds
10:20 AM 62.6 °F 44.6 °F 52% 30.04 in 6.2 mi Variable 4.6 mph - N/A   Scattered Clouds
10:50 AM 62.6 °F 44.6 °F 52% 30.04 in 6.2 mi North 4.6 mph - N/A   Scattered Clouds
11:20 AM 64.4 °F 44.6 °F 49% 30.04 in 6.2 mi Variable 3.5 mph - N/A   Scattered Clouds
11:50 AM 66.2 °F 44.6 °F 46% 30.04 in 6.2 mi NE 5.8 mph - N/A   Scattered Clouds
12:20 PM 64.4 °F 44.6 °F 49% 30.04 in 6.2 mi NE 6.9 mph - N/A   Scattered Clouds
12:50 PM 68.0 °F 44.6 °F 43% 30.04 in 6.2 mi Variable 4.6 mph - N/A   Partly Cloudy
1:20 PM 68.0 °F 44.6 °F 43% 30.01 in 6.2 mi Variable 4.6 mph - N/A   Partly Cloudy
1:50 PM 69.8 °F 44.6 °F 40% 30.01 in 6.2 mi North 6.9 mph - N/A   Scattered Clouds
2:02 PM 69.8 °F 42.8 °F 38% 30.01 in 6.2 mi NNE 5.8 mph - N/A Thunderstorm Scattered Clouds
2:20 PM 69.8 °F 46.4 °F 43% 30.01 in 6.2 mi Variable 5.8 mph 17.3 mph N/A Thunderstorm Scattered Clouds
2:50 PM 66.2 °F 48.2 °F 52% 30.01 in 6.2 mi North 16.1 mph - N/A Thunderstorm Scattered Clouds
3:00 PM 65 °F 48 °F 43%  in 12 mi NNE 16.1 mph - -   Mostly Cloudy
3:20 PM 69.8 °F 48.2 °F 46% 30.01 in 6.2 mi NNE 10.4 mph - N/A   Mostly Cloudy
3:50 PM 68.0 °F 42.8 °F 40% 30.01 in 6.2 mi North 9.2 mph - N/A   Mostly Cloudy
4:20 PM 68.0 °F 44.6 °F 43% 29.98 in 6.2 mi Variable 4.6 mph - N/A   Scattered Clouds
4:50 PM 69.8 °F 41.0 °F 35% 29.98 in 6.2 mi NNW 8.1 mph - N/A   Scattered Clouds
5:20 PM 64.4 °F 48.2 °F 56% 29.98 in 6.2 mi NE 11.5 mph - N/A   Scattered Clouds
5:50 PM 64.4 °F 50.0 °F 59% 30.01 in 6.2 mi NE 8.1 mph - N/A   Scattered Clouds
6:20 PM 64.4 °F 44.6 °F 49% 30.01 in 6.2 mi NE 9.2 mph - N/A   Scattered Clouds
6:32 PM 62.6 °F 46.4 °F 55% 30.01 in 6.2 mi NNE 6.9 mph - N/A Rain Light Rain Showers
6:50 PM 62.6 °F 44.6 °F 52% 30.04 in 6.2 mi NNE 8.1 mph - N/A Rain Light Rain Showers
6:57 PM 62.6 °F 44.6 °F 52% 30.04 in 6.2 mi NE 5.8 mph - N/A   Scattered Clouds
7:20 PM 62.6 °F 46.4 °F 55% 30.04 in 6.2 mi NE 5.8 mph - N/A   Scattered Clouds
7:50 PM 59.0 °F 46.4 °F 63% 30.04 in 6.2 mi ENE 4.6 mph - N/A   Mostly Cloudy
8:20 PM 57.2 °F 44.6 °F 63% 30.06 in 6.2 mi East 5.8 mph - N/A   Mostly Cloudy
8:50 PM 57.2 °F 46.4 °F 67% 30.06 in 6.2 mi SE 4.6 mph - N/A   Mostly Cloudy
9:00 PM 56 °F 45 °F 57%  in 12 mi SE 4.6 mph - -   Partly Cloudy
9:20 PM 55.4 °F 42.8 °F 63% 30.09 in 6.2 mi ENE 6.9 mph - N/A   Mostly Cloudy
9:50 PM 53.6 °F 42.8 °F 67% 30.09 in 6.2 mi NNW 5.8 mph - N/A   Scattered Clouds
10:20 PM 53.6 °F 42.8 °F 67% 30.09 in 6.2 mi Variable 2.3 mph - N/A   Partly Cloudy
10:50 PM 53.6 °F 42.8 °F 67% 30.09 in 6.2 mi ENE 3.5 mph - N/A   Scattered Clouds
11:20 PM 53.6 °F 42.8 °F 67% 30.09 in - ENE 6.9 mph - N/A   Clear
11:50 PM 53.6 °F 42.8 °F 67% 30.06 in - ENE 5.8 mph - N/A   Clear